Flag for U.S.A. Weather past 2 weeks in Neenah, Wisconsin, U.S.A.

Now
9 °F

Clear.


Feels Like: -5 °F
Forecast: 2 / 25 °F
Wind: 9 mph from Southwest

Location: Appleton / Outagamie

Current Time: Mar 5, 2015 at 10:32:54 PM

Latest Report: Mar 5, 2015 at 8:45 PM


Visibility: 10 mi

Pressure: 30.42 "Hg

Humidity: 47%

Dew point: -8 °F

Location of NeenahLocation

Historic Weather in Neenah — Graph

°F

Neenah temperature yesterday

Maximum temperature yesterday: 21 °F (at 12:15 AM)
Minimum temperature yesterday: 3 °F (at 11:15 PM)
Average temperature yesterday: 12 °F

Past Weeks' High & Low Weather Summary

 TemperatureHumidityPressure
High30 °F (Feb 24, 12:45 PM)93% (Mar 3, 7:45 AM)30.66 "Hg (Mar 3, 7:45 AM)
Low-17 °F (Feb 19, 6:45 AM)33% (Feb 23, 4:45 PM)29.50 "Hg (Feb 24, 1:45 PM)
Average9 °F60%30.20 "Hg
* Reported Feb 18 8:45 PM — Mar 5 8:45 PM, Neenah, Weather by CustomWeather, © 2015

Note: Actual official high and low records may vary slightly from our data, if they occured in-between our weather recording intervals... More about our weather records

Advertising

Neenah weather history for previous 24 hours

 ConditionsComfort  
Time TempWeatherWind HumidityBarometerVisibility
8:45 PM
Thu, Mar 5
9 °FClear.9 mph47%30.42 "Hg10 mi
7:45 PM9 °FClear.7 mph47%30.42 "Hg10 mi
6:45 PM10 °FClear.7 mph44%30.42 "Hg10 mi
4:45 PM14 °FSunny.9 mph41%30.41 "Hg10 mi
3:45 PM14 °FSunny.8 mph37%30.41 "Hg10 mi
2:45 PM14 °FSunny.13 mph37%30.41 "Hg10 mi
1:45 PM12 °FSunny.10 mph40%30.42 "Hg10 mi
12:45 PM10 °FSunny.9 mph40%30.42 "Hg10 mi
11:45 AM10 °FSunny.13 mph40%30.45 "Hg10 mi
10:45 AM7 °FSunny.9 mph51%30.46 "Hg10 mi
9:45 AM3 °FSunny.6 mph55%30.46 "Hg10 mi
8:50 AM0 °FSunny.5 mph60%30.46 "Hg10 mi
7:45 AM-6 °FSunny.9 mph64%30.42 "Hg10 mi
6:45 AM-8 °FSunny.9 mph64%30.39 "Hg10 mi
5:45 AM-6 °FClear.9 mph59%30.38 "Hg10 mi
4:15 AM-4 °FClear.8 mph59%30.36 "Hg10 mi
3:55 AM-4 °FClear.7 mph59%30.36 "Hg10 mi
3:35 AM-2 °FClear.7 mph54%30.36 "Hg10 mi
3:15 AM-2 °FClear.6 mph54%30.36 "Hg10 mi
2:55 AM-2 °FClear.8 mph54%30.35 "Hg10 mi
2:15 AM0 °FClear.6 mph54%30.36 "Hg10 mi
1:55 AM0 °FClear.6 mph50%30.36 "Hg10 mi
1:35 AM1 °FClear.6 mph50%30.36 "Hg10 mi
1:15 AM1 °FClear.6 mph50%30.37 "Hg10 mi
12:55 AM1 °FClear.6 mph50%30.37 "Hg10 mi
12:35 AM1 °FClear.6 mph46%30.36 "Hg10 mi
12:15 AM3 °FClear.5 mph46%30.35 "Hg10 mi
11:55 PM
Wed, Mar 4
3 °FClear.5 mph46%30.33 "Hg10 mi
11:15 PM3 °FClear.7 mph46%30.34 "Hg10 mi
10:55 PM5 °FClear.7 mph42%30.32 "Hg10 mi
10:15 PM5 °FClear.7 mph46%30.32 "Hg10 mi
Weather by CustomWeather, © 2015

See weather overviewHow to use our weather pages